,,PressureMeas_1m,,PRMeasQMR101_1,,RHStat155_1m_1,,SRMeasQMS101R_1m,,TAStat155_1m_1,,GenWind_1,,GenWind_1,
2017-09-08, 00:00:06,VALID,918.325,VALID,0.0,VALID,98.749,VALID,-0.004,VALID,18.901,VALID,111.0,VALID,0.303,
2017-09-08, 00:01:06,VALID,918.342,VALID,0.0,VALID,98.727,VALID,-0.008,VALID,18.856,VALID,122.0,VALID,0.154,
2017-09-08, 00:02:06,VALID,918.357,VALID,0.0,VALID,98.715,VALID,-0.005,VALID,18.825,VALID,130.0,VALID,0.017,
2017-09-08, 00:03:06,VALID,918.372,VALID,0.0,VALID,98.717,VALID,-0.001,VALID,18.814,VALID,130.0,VALID,0.0,
2017-09-08, 00:04:06,VALID,918.377,VALID,0.0,VALID,98.695,VALID,-0.002,VALID,18.811,VALID,130.0,VALID,0.0,
2017-09-08, 00:05:06,VALID,918.39,VALID,0.0,VALID,98.712,VALID,-0.002,VALID,18.825,VALID,130.0,VALID,0.0,
2017-09-08, 00:06:06,VALID,918.389,VALID,0.0,VALID,98.728,VALID,-0.004,VALID,18.834,VALID,130.0,VALID,0.0,
2017-09-08, 00:07:06,VALID,918.392,VALID,0.0,VALID,98.712,VALID,0.0,VALID,18.822,VALID,130.0,VALID,0.0,
2017-09-08, 00:08:06,VALID,918.373,VALID,0.0,VALID,98.702,VALID,-0.008,VALID,18.807,VALID,130.0,VALID,0.0,
2017-09-08, 00:09:06,VALID,918.37,VALID,0.0,VALID,98.751,VALID,0.001,VALID,18.83,VALID,130.0,VALID,0.0,
2017-09-08, 00:10:06,VALID,918.37,VALID,0.0,VALID,98.772,VALID,-0.015,VALID,18.885,VALID,143.0,VALID,0.0,
2017-09-08, 00:11:06,VALID,918.375,VALID,0.0,VALID,98.798,VALID,-0.002,VALID,18.941,VALID,157.0,VALID,0.0,
2017-09-08, 00:12:06,VALID,918.367,VALID,0.0,VALID,98.801,VALID,0.021,VALID,18.978,VALID,197.0,VALID,0.0,
2017-09-08, 00:13:06,VALID,918.359,VALID,0.0,VALID,98.791,VALID,0.019,VALID,18.983,VALID,197.0,VALID,0.0,
2017-09-08, 00:14:06,VALID,918.351,VALID,0.0,VALID,98.776,VALID,0.015,VALID,18.96,VALID,191.0,VALID,0.079,
2017-09-08, 00:15:06,VALID,918.332,VALID,0.0,VALID,98.729,VALID,0.023,VALID,18.902,VALID,178.0,VALID,0.605,
2017-09-08, 00:16:06,VALID,918.308,VALID,0.0,VALID,98.711,VALID,0.016,VALID,18.845,VALID,177.0,VALID,0.595,
2017-09-08, 00:17:06,VALID,918.306,VALID,0.0,VALID,98.718,VALID,0.012,VALID,18.839,VALID,175.0,VALID,0.233,
2017-09-08, 00:18:06,VALID,918.288,VALID,0.0,VALID,98.741,VALID,0.017,VALID,18.846,VALID,174.0,VALID,0.278,
2017-09-08, 00:19:06,VALID,918.293,VALID,0.0,VALID,98.718,VALID,0.013,VALID,18.81,VALID,159.0,VALID,0.459,
2017-09-08, 00:20:06,VALID,918.278,VALID,0.0,VALID,98.735,VALID,0.005,VALID,18.804,VALID,143.0,VALID,0.349,
2017-09-08, 00:21:06,VALID,918.272,VALID,0.0,VALID,98.744,VALID,0.008,VALID,18.819,VALID,131.0,VALID,0.083,
2017-09-08, 00:22:06,VALID,918.252,VALID,0.0,VALID,98.712,VALID,0.007,VALID,18.716,VALID,121.0,VALID,0.175,
2017-09-08, 00:23:06,VALID,918.239,VALID,0.0,VALID,98.666,VALID,0.018,VALID,18.651,VALID,114.0,VALID,0.136,
2017-09-08, 00:24:06,VALID,918.224,VALID,0.0,VALID,98.68,VALID,0.016,VALID,18.627,VALID,114.0,VALID,0.0,
2017-09-08, 00:25:06,VALID,918.208,VALID,0.0,VALID,98.675,VALID,0.017,VALID,18.633,VALID,114.0,VALID,0.0,
2017-09-08, 00:26:06,VALID,918.195,VALID,0.0,VALID,98.722,VALID,-0.006,VALID,18.687,VALID,114.0,VALID,0.029,
2017-09-08, 00:27:06,VALID,918.194,VALID,0.0,VALID,98.74,VALID,-0.016,VALID,18.719,VALID,114.0,VALID,0.072,
2017-09-08, 00:28:06,VALID,918.188,VALID,0.0,VALID,98.764,VALID,-0.011,VALID,18.729,VALID,114.0,VALID,0.002,
2017-09-08, 00:29:06,VALID,918.173,VALID,0.0,VALID,98.777,VALID,-0.002,VALID,18.754,VALID,114.0,VALID,0.0,
2017-09-08, 00:30:06,VALID,918.153,VALID,0.0,VALID,98.798,VALID,0.003,VALID,18.803,VALID,114.0,VALID,0.0,
2017-09-08, 00:31:06,VALID,918.111,VALID,0.0,VALID,98.815,VALID,-0.007,VALID,18.868,VALID,114.0,VALID,0.0,
2017-09-08, 00:32:06,VALID,918.07,VALID,0.0,VALID,98.831,VALID,-0.016,VALID,18.879,VALID,114.0,VALID,0.0,
2017-09-08, 00:33:06,VALID,918.044,VALID,0.0,VALID,98.799,VALID,-0.021,VALID,18.826,VALID,114.0,VALID,0.0,
2017-09-08, 00:34:06,VALID,918.022,VALID,0.0,VALID,98.778,VALID,-0.008,VALID,18.769,VALID,114.0,VALID,0.0,
2017-09-08, 00:35:06,VALID,918.0,VALID,0.0,VALID,98.755,VALID,-0.003,VALID,18.732,VALID,114.0,VALID,0.0,
2017-09-08, 00:36:06,VALID,917.969,VALID,0.0,VALID,98.767,VALID,0.006,VALID,18.726,VALID,114.0,VALID,0.0,
2017-09-08, 00:37:06,VALID,917.946,VALID,0.0,VALID,98.783,VALID,0.002,VALID,18.758,VALID,114.0,VALID,0.0,
2017-09-08, 00:38:06,VALID,917.93,VALID,0.0,VALID,98.746,VALID,-0.017,VALID,18.671,VALID,101.0,VALID,0.0,
2017-09-08, 00:39:06,VALID,917.904,VALID,0.0,VALID,98.704,VALID,-0.011,VALID,18.585,VALID,85.0,VALID,0.0,
2017-09-08, 00:40:06,VALID,917.893,VALID,0.0,VALID,98.699,VALID,0.025,VALID,18.536,VALID,85.0,VALID,0.0,
2017-09-08, 00:41:06,VALID,917.886,VALID,0.0,VALID,98.693,VALID,0.009,VALID,18.512,VALID,85.0,VALID,0.0,
2017-09-08, 00:42:06,VALID,917.88,VALID,0.0,VALID,98.671,VALID,-0.025,VALID,18.456,VALID,102.0,VALID,0.0,
2017-09-08, 00:43:06,VALID,917.876,VALID,0.0,VALID,98.645,VALID,-0.025,VALID,18.398,VALID,147.0,VALID,0.636,
2017-09-08, 00:44:06,VALID,917.858,VALID,0.0,VALID,98.714,VALID,-0.025,VALID,18.469,VALID,127.0,VALID,0.854,
2017-09-08, 00:45:06,VALID,917.846,VALID,0.0,VALID,98.749,VALID,-0.04,VALID,18.503,VALID,131.0,VALID,0.862,
2017-09-08, 00:46:06,VALID,917.835,VALID,0.0,VALID,98.85,VALID,-0.045,VALID,18.663,VALID,142.0,VALID,1.119,
2017-09-08, 00:47:06,VALID,917.808,VALID,0.0,VALID,98.891,VALID,-0.024,VALID,18.797,VALID,129.0,VALID,0.94,
2017-09-08, 00:48:06,VALID,917.806,VALID,0.0,VALID,98.853,VALID,-0.003,VALID,18.783,VALID,133.0,VALID,0.657,
2017-09-08, 00:49:06,VALID,917.8,VALID,0.0,VALID,98.86,VALID,-0.011,VALID,18.765,VALID,130.0,VALID,0.32,
2017-09-08, 00:50:06,VALID,917.799,VALID,0.0,VALID,98.844,VALID,-0.029,VALID,18.718,VALID,107.0,VALID,0.134,
2017-09-08, 00:51:06,VALID,917.789,VALID,0.0,VALID,98.799,VALID,-0.007,VALID,18.666,VALID,99.0,VALID,0.161,
2017-09-08, 00:52:06,VALID,917.793,VALID,0.0,VALID,98.776,VALID,-0.026,VALID,18.625,VALID,57.0,VALID,0.328,
2017-09-08, 00:53:06,VALID,917.797,VALID,0.0,VALID,98.773,VALID,-0.024,VALID,18.589,VALID,42.0,VALID,0.392,
2017-09-08, 00:54:06,VALID,917.801,VALID,0.0,VALID,98.765,VALID,-0.01,VALID,18.552,VALID,52.0,VALID,0.562,
2017-09-08, 00:55:06,VALID,917.804,VALID,0.0,VALID,98.758,VALID,-0.017,VALID,18.499,VALID,67.0,VALID,0.769,
2017-09-08, 00:56:06,VALID,917.809,VALID,0.0,VALID,98.784,VALID,-0.02,VALID,18.489,VALID,78.0,VALID,0.786,
2017-09-08, 00:57:06,VALID,917.806,VALID,0.0,VALID,98.808,VALID,-0.031,VALID,18.522,VALID,84.0,VALID,0.739,
2017-09-08, 00:58:06,VALID,917.795,VALID,0.0,VALID,98.814,VALID,-0.027,VALID,18.547,VALID,85.0,VALID,0.594,
2017-09-08, 00:59:06,VALID,917.789,VALID,0.0,VALID,98.815,VALID,-0.054,VALID,18.544,VALID,86.0,VALID,0.287,
2017-09-08, 01:00:06,VALID,917.758,VALID,0.0,VALID,98.806,VALID,-0.03,VALID,18.492,VALID,85.0,VALID,0.296,
2017-09-08, 01:01:06,VALID,917.734,VALID,0.0,VALID,98.825,VALID,-0.033,VALID,18.471,VALID,85.0,VALID,0.087,
2017-09-08, 01:02:06,VALID,917.706,VALID,0.0,VALID,98.808,VALID,-0.04,VALID,18.478,VALID,85.0,VALID,0.001,
2017-09-08, 01:03:06,VALID,917.668,VALID,0.0,VALID,98.845,VALID,-0.027,VALID,18.508,VALID,85.0,VALID,0.0,
2017-09-08, 01:04:06,VALID,917.65,VALID,0.0,VALID,98.861,VALID,-0.034,VALID,18.533,VALID,85.0,VALID,0.0,
2017-09-08, 01:05:06,VALID,917.651,VALID,0.0,VALID,98.873,VALID,-0.042,VALID,18.548,VALID,85.0,VALID,0.0,
2017-09-08, 01:06:06,VALID,917.624,VALID,0.0,VALID,98.849,VALID,-0.036,VALID,18.555,VALID,85.0,VALID,0.002,
2017-09-08, 01:07:06,VALID,917.608,VALID,0.0,VALID,98.924,VALID,-0.035,VALID,18.632,VALID,85.0,VALID,0.0,
2017-09-08, 01:08:06,VALID,917.584,VALID,0.0,VALID,98.912,VALID,-0.033,VALID,18.666,VALID,85.0,VALID,0.003,
2017-09-08, 01:09:06,VALID,917.578,VALID,0.0,VALID,98.89,VALID,-0.023,VALID,18.644,VALID,108.0,VALID,0.1,
2017-09-08, 01:10:06,VALID,917.576,VALID,0.0,VALID,98.811,VALID,-0.034,VALID,18.517,VALID,157.0,VALID,0.18,
2017-09-08, 01:11:06,VALID,917.574,VALID,0.0,VALID,98.812,VALID,-0.012,VALID,18.438,VALID,158.0,VALID,0.277,
2017-09-08, 01:12:06,VALID,917.577,VALID,0.0,VALID,98.792,VALID,0.012,VALID,18.411,VALID,160.0,VALID,0.431,
2017-09-08, 01:13:06,VALID,917.577,VALID,0.0,VALID,98.839,VALID,0.016,VALID,18.437,VALID,160.0,VALID,0.437,
2017-09-08, 01:14:06,VALID,917.572,VALID,0.0,VALID,98.836,VALID,0.013,VALID,18.431,VALID,140.0,VALID,0.294,
2017-09-08, 01:15:06,VALID,917.558,VALID,0.0,VALID,98.809,VALID,0.008,VALID,18.337,VALID,114.0,VALID,0.242,
2017-09-08, 01:16:06,VALID,917.561,VALID,0.0,VALID,98.794,VALID,0.008,VALID,18.266,VALID,105.0,VALID,0.47,
2017-09-08, 01:17:06,VALID,917.564,VALID,0.0,VALID,98.739,VALID,0.018,VALID,18.148,VALID,87.0,VALID,0.466,
2017-09-08, 01:18:06,VALID,917.588,VALID,0.0,VALID,98.785,VALID,0.022,VALID,18.172,VALID,81.0,VALID,0.648,
2017-09-08, 01:19:06,VALID,917.597,VALID,0.0,VALID,98.856,VALID,0.015,VALID,18.284,VALID,82.0,VALID,0.841,
2017-09-08, 01:20:06,VALID,917.618,VALID,0.0,VALID,98.889,VALID,0.019,VALID,18.411,VALID,90.0,VALID,1.037,
2017-09-08, 01:21:06,VALID,917.619,VALID,0.0,VALID,98.943,VALID,0.024,VALID,18.539,VALID,105.0,VALID,0.879,
2017-09-08, 01:22:06,VALID,917.613,VALID,0.0,VALID,98.917,VALID,0.003,VALID,18.522,VALID,106.0,VALID,0.899,
2017-09-08, 01:23:06,VALID,917.6,VALID,0.0,VALID,98.876,VALID,0.002,VALID,18.481,VALID,105.0,VALID,0.771,
2017-09-08, 01:24:06,VALID,917.58,VALID,0.0,VALID,98.879,VALID,0.002,VALID,18.434,VALID,117.0,VALID,0.754,
2017-09-08, 01:25:06,VALID,917.545,VALID,0.0,VALID,98.861,VALID,0.014,VALID,18.377,VALID,124.0,VALID,0.703,
2017-09-08, 01:26:06,VALID,917.526,VALID,0.0,VALID,98.871,VALID,0.003,VALID,18.357,VALID,127.0,VALID,0.839,
2017-09-08, 01:27:06,VALID,917.507,VALID,0.0,VALID,98.872,VALID,0.003,VALID,18.376,VALID,130.0,VALID,0.887,
2017-09-08, 01:28:06,VALID,917.486,VALID,0.0,VALID,98.881,VALID,-0.002,VALID,18.377,VALID,131.0,VALID,0.835,
2017-09-08, 01:29:06,VALID,917.472,VALID,0.0,VALID,98.967,VALID,-0.004,VALID,18.511,VALID,129.0,VALID,0.695,
2017-09-08, 01:30:06,VALID,917.476,VALID,0.0,VALID,98.944,VALID,0.002,VALID,18.562,VALID,127.0,VALID,0.66,
2017-09-08, 01:31:06,VALID,917.46,VALID,0.0,VALID,98.946,VALID,0.007,VALID,18.575,VALID,127.0,VALID,0.391,
2017-09-08, 01:32:06,VALID,917.46,VALID,0.0,VALID,98.93,VALID,-0.0,VALID,18.569,VALID,121.0,VALID,0.233,
2017-09-08, 01:33:06,VALID,917.44,VALID,0.0,VALID,98.913,VALID,0.017,VALID,18.542,VALID,114.0,VALID,0.31,
2017-09-08, 01:34:06,VALID,917.436,VALID,0.0,VALID,98.925,VALID,0.011,VALID,18.487,VALID,113.0,VALID,0.336,
2017-09-08, 01:35:06,VALID,917.413,VALID,0.0,VALID,98.921,VALID,0.007,VALID,18.501,VALID,115.0,VALID,0.395,
2017-09-08, 01:36:06,VALID,917.4,VALID,0.0,VALID,98.93,VALID,0.007,VALID,18.5,VALID,116.0,VALID,0.469,
2017-09-08, 01:37:06,VALID,917.376,VALID,0.0,VALID,98.891,VALID,-0.01,VALID,18.417,VALID,126.0,VALID,0.467,
2017-09-08, 01:38:06,VALID,917.368,VALID,0.0,VALID,98.848,VALID,0.002,VALID,18.316,VALID,126.0,VALID,0.548,
2017-09-08, 01:39:06,VALID,917.348,VALID,0.0,VALID,98.893,VALID,0.01,VALID,18.344,VALID,129.0,VALID,0.701,
2017-09-08, 01:40:06,VALID,917.334,VALID,0.0,VALID,98.907,VALID,0.009,VALID,18.387,VALID,128.0,VALID,0.537,
2017-09-08, 01:41:06,VALID,917.313,VALID,0.0,VALID,98.913,VALID,-0.004,VALID,18.415,VALID,128.0,VALID,0.459,
2017-09-08, 01:42:06,VALID,917.287,VALID,0.0,VALID,98.903,VALID,-0.01,VALID,18.417,VALID,132.0,VALID,0.469,
2017-09-08, 01:43:06,VALID,917.276,VALID,0.0,VALID,98.959,VALID,-0.008,VALID,18.497,VALID,151.0,VALID,0.596,
2017-09-08, 01:44:06,VALID,917.26,VALID,0.0,VALID,98.964,VALID,-0.013,VALID,18.552,VALID,152.0,VALID,0.583,
2017-09-08, 01:45:06,VALID,917.263,VALID,0.0,VALID,98.982,VALID,-0.003,VALID,18.608,VALID,152.0,VALID,0.487,
2017-09-08, 01:46:06,VALID,917.251,VALID,0.0,VALID,98.973,VALID,0.003,VALID,18.596,VALID,138.0,VALID,0.349,
2017-09-08, 01:47:06,VALID,917.244,VALID,0.0,VALID,98.958,VALID,-0.002,VALID,18.565,VALID,133.0,VALID,0.352,
2017-09-08, 01:48:06,VALID,917.226,VALID,0.0,VALID,98.947,VALID,-0.031,VALID,18.536,VALID,133.0,VALID,0.298,
2017-09-08, 01:49:06,VALID,917.218,VALID,0.0,VALID,98.934,VALID,-0.007,VALID,18.507,VALID,133.0,VALID,0.154,
2017-09-08, 01:50:06,VALID,917.202,VALID,0.0,VALID,98.941,VALID,-0.021,VALID,18.534,VALID,136.0,VALID,0.253,
2017-09-08, 01:51:06,VALID,917.182,VALID,0.0,VALID,98.931,VALID,-0.028,VALID,18.538,VALID,144.0,VALID,0.087,
2017-09-08, 01:52:06,VALID,917.177,VALID,0.0,VALID,98.946,VALID,-0.026,VALID,18.547,VALID,146.0,VALID,0.0,
2017-09-08, 01:53:06,VALID,917.17,VALID,0.0,VALID,98.934,VALID,-0.007,VALID,18.531,VALID,146.0,VALID,0.0,
2017-09-08, 01:54:06,VALID,917.172,VALID,0.0,VALID,98.932,VALID,-0.009,VALID,18.478,VALID,146.0,VALID,0.0,
2017-09-08, 01:55:06,VALID,917.178,VALID,0.0,VALID,98.919,VALID,-0.01,VALID,18.391,VALID,143.0,VALID,0.0,
2017-09-08, 01:56:06,VALID,917.191,VALID,0.0,VALID,98.88,VALID,-0.016,VALID,18.301,VALID,140.0,VALID,0.0,
2017-09-08, 01:57:06,VALID,917.213,VALID,0.0,VALID,98.895,VALID,-0.036,VALID,18.3,VALID,134.0,VALID,0.019,
2017-09-08, 01:58:06,VALID,917.21,VALID,0.0,VALID,98.929,VALID,-0.028,VALID,18.346,VALID,128.0,VALID,0.721,
2017-09-08, 01:59:06,VALID,917.201,VALID,0.0,VALID,98.916,VALID,-0.019,VALID,18.307,VALID,113.0,VALID,0.754,
2017-09-08, 02:00:06,VALID,917.168,VALID,0.0,VALID,98.894,VALID,-0.033,VALID,18.233,VALID,104.0,VALID,0.769,
2017-09-08, 02:01:06,VALID,917.159,VALID,0.0,VALID,98.91,VALID,-0.034,VALID,18.212,VALID,114.0,VALID,0.962,
2017-09-08, 02:02:06,VALID,917.14,VALID,0.0,VALID,98.941,VALID,-0.024,VALID,18.266,VALID,111.0,VALID,1.123,
2017-09-08, 02:03:06,VALID,917.125,VALID,0.0,VALID,99.024,VALID,-0.046,VALID,18.439,VALID,114.0,VALID,1.173,
2017-09-08, 02:04:06,VALID,917.117,VALID,0.0,VALID,98.995,VALID,-0.023,VALID,18.535,VALID,112.0,VALID,1.191,
2017-09-08, 02:05:06,VALID,917.111,VALID,0.0,VALID,98.999,VALID,-0.025,VALID,18.586,VALID,113.0,VALID,1.17,
2017-09-08, 02:06:06,VALID,917.115,VALID,0.0,VALID,98.969,VALID,-0.029,VALID,18.544,VALID,115.0,VALID,1.096,
2017-09-08, 02:07:06,VALID,917.113,VALID,0.0,VALID,98.962,VALID,-0.015,VALID,18.494,VALID,114.0,VALID,1.163,
2017-09-08, 02:08:06,VALID,917.111,VALID,0.0,VALID,98.904,VALID,-0.028,VALID,18.382,VALID,116.0,VALID,1.205,
2017-09-08, 02:09:06,VALID,917.104,VALID,0.0,VALID,98.936,VALID,-0.033,VALID,18.383,VALID,115.0,VALID,1.344,
2017-09-08, 02:10:06,VALID,917.104,VALID,0.0,VALID,98.96,VALID,-0.034,VALID,18.389,VALID,110.0,VALID,1.299,
2017-09-08, 02:11:06,VALID,917.095,VALID,0.0,VALID,98.938,VALID,-0.014,VALID,18.375,VALID,100.0,VALID,1.245,
2017-09-08, 02:12:06,VALID,917.081,VALID,0.0,VALID,98.988,VALID,-0.021,VALID,18.451,VALID,103.0,VALID,1.092,
2017-09-08, 02:13:06,VALID,917.057,VALID,0.0,VALID,98.967,VALID,-0.028,VALID,18.436,VALID,107.0,VALID,1.033,
2017-09-08, 02:14:06,VALID,917.016,VALID,0.0,VALID,98.961,VALID,-0.016,VALID,18.439,VALID,114.0,VALID,1.172,
2017-09-08, 02:15:06,VALID,916.992,VALID,0.0,VALID,98.963,VALID,-0.012,VALID,18.434,VALID,124.0,VALID,1.107,
2017-09-08, 02:16:06,VALID,916.96,VALID,0.0,VALID,98.955,VALID,0.011,VALID,18.401,VALID,130.0,VALID,1.047,
2017-09-08, 02:17:06,VALID,916.93,VALID,0.0,VALID,98.957,VALID,-0.012,VALID,18.409,VALID,138.0,VALID,1.13,
2017-09-08, 02:18:06,VALID,916.919,VALID,0.0,VALID,98.98,VALID,-0.004,VALID,18.456,VALID,150.0,VALID,1.25,
2017-09-08, 02:19:06,VALID,916.906,VALID,0.0,VALID,99.003,VALID,-0.016,VALID,18.508,VALID,145.0,VALID,1.162,
2017-09-08, 02:20:06,VALID,916.892,VALID,0.0,VALID,98.975,VALID,-0.013,VALID,18.51,VALID,150.0,VALID,1.138,
2017-09-08, 02:21:06,VALID,916.897,VALID,0.0,VALID,98.986,VALID,-0.015,VALID,18.531,VALID,144.0,VALID,1.251,
2017-09-08, 02:22:06,VALID,916.887,VALID,0.0,VALID,98.986,VALID,-0.007,VALID,18.542,VALID,134.0,VALID,1.063,
2017-09-08, 02:23:06,VALID,916.874,VALID,0.0,VALID,98.969,VALID,-0.015,VALID,18.502,VALID,137.0,VALID,0.829,
2017-09-08, 02:24:06,VALID,916.856,VALID,0.0,VALID,98.987,VALID,-0.008,VALID,18.473,VALID,131.0,VALID,0.732,
2017-09-08, 02:25:06,VALID,916.84,VALID,0.0,VALID,98.943,VALID,-0.028,VALID,18.401,VALID,121.0,VALID,0.516,
2017-09-08, 02:26:06,VALID,916.804,VALID,0.0,VALID,98.94,VALID,-0.007,VALID,18.344,VALID,108.0,VALID,0.739,
2017-09-08, 02:27:06,VALID,916.772,VALID,0.0,VALID,98.996,VALID,0.002,VALID,18.417,VALID,112.0,VALID,0.956,
2017-09-08, 02:28:06,VALID,916.737,VALID,0.0,VALID,99.043,VALID,-0.012,VALID,18.588,VALID,114.0,VALID,0.75,
2017-09-08, 02:29:06,VALID,916.705,VALID,0.0,VALID,99.046,VALID,0.012,VALID,18.647,VALID,114.0,VALID,0.578,
2017-09-08, 02:30:06,VALID,916.692,VALID,0.0,VALID,99.004,VALID,0.019,VALID,18.641,VALID,114.0,VALID,0.49,
2017-09-08, 02:31:06,VALID,916.677,VALID,0.0,VALID,98.987,VALID,0.025,VALID,18.604,VALID,114.0,VALID,0.632,
2017-09-08, 02:32:06,VALID,916.677,VALID,0.0,VALID,98.98,VALID,0.006,VALID,18.558,VALID,115.0,VALID,0.979,
2017-09-08, 02:33:06,VALID,916.675,VALID,0.0,VALID,98.976,VALID,0.002,VALID,18.502,VALID,127.0,VALID,1.059,
2017-09-08, 02:34:06,VALID,916.673,VALID,0.0,VALID,98.998,VALID,0.016,VALID,18.513,VALID,137.0,VALID,1.29,
2017-09-08, 02:35:06,VALID,916.668,VALID,0.0,VALID,99.024,VALID,0.01,VALID,18.622,VALID,139.0,VALID,1.394,
2017-09-08, 02:36:06,VALID,916.654,VALID,0.0,VALID,99.036,VALID,0.006,VALID,18.664,VALID,138.0,VALID,1.171,
2017-09-08, 02:37:06,VALID,916.659,VALID,0.0,VALID,98.997,VALID,-0.017,VALID,18.607,VALID,130.0,VALID,1.022,
2017-09-08, 02:38:06,VALID,916.642,VALID,0.0,VALID,98.961,VALID,0.001,VALID,18.542,VALID,123.0,VALID,1.068,
2017-09-08, 02:39:06,VALID,916.633,VALID,0.0,VALID,98.977,VALID,-0.002,VALID,18.494,VALID,114.0,VALID,1.071,
2017-09-08, 02:40:06,VALID,916.64,VALID,0.0,VALID,98.994,VALID,-0.023,VALID,18.535,VALID,114.0,VALID,1.084,
2017-09-08, 02:41:06,VALID,916.637,VALID,0.0,VALID,99.022,VALID,-0.005,VALID,18.629,VALID,114.0,VALID,1.077,
2017-09-08, 02:42:06,VALID,916.609,VALID,0.0,VALID,99.03,VALID,0.006,VALID,18.672,VALID,117.0,VALID,1.027,
2017-09-08, 02:43:06,VALID,916.571,VALID,0.0,VALID,99.012,VALID,0.003,VALID,18.663,VALID,123.0,VALID,1.28,
2017-09-08, 02:44:06,VALID,916.549,VALID,0.0,VALID,98.983,VALID,-0.0,VALID,18.635,VALID,126.0,VALID,1.058,
2017-09-08, 02:45:06,VALID,916.517,VALID,0.0,VALID,98.981,VALID,-0.004,VALID,18.584,VALID,130.0,VALID,0.927,
2017-09-08, 02:46:06,VALID,916.517,VALID,0.0,VALID,98.97,VALID,0.005,VALID,18.538,VALID,138.0,VALID,1.147,
2017-09-08, 02:47:06,VALID,916.515,VALID,0.0,VALID,99.003,VALID,0.011,VALID,18.598,VALID,137.0,VALID,1.173,
2017-09-08, 02:48:06,VALID,916.529,VALID,0.0,VALID,99.014,VALID,0.006,VALID,18.609,VALID,130.0,VALID,1.042,
2017-09-08, 02:49:06,VALID,916.538,VALID,0.0,VALID,98.98,VALID,0.004,VALID,18.589,VALID,138.0,VALID,1.26,
2017-09-08, 02:50:06,VALID,916.544,VALID,0.0,VALID,99.019,VALID,0.012,VALID,18.64,VALID,142.0,VALID,1.359,
2017-09-08, 02:51:06,VALID,916.557,VALID,0.0,VALID,99.0,VALID,-0.013,VALID,18.617,VALID,132.0,VALID,1.3,
2017-09-08, 02:52:06,VALID,916.555,VALID,0.0,VALID,98.984,VALID,-0.004,VALID,18.571,VALID,135.0,VALID,1.422,
2017-09-08, 02:53:06,VALID,916.563,VALID,0.0,VALID,98.986,VALID,-0.0,VALID,18.589,VALID,128.0,VALID,1.429,
2017-09-08, 02:54:06,VALID,916.559,VALID,0.0,VALID,99.017,VALID,-0.002,VALID,18.61,VALID,131.0,VALID,1.382,
2017-09-08, 02:55:06,VALID,916.536,VALID,0.0,VALID,99.032,VALID,-0.008,VALID,18.612,VALID,131.0,VALID,1.336,
2017-09-08, 02:56:06,VALID,916.514,VALID,0.0,VALID,98.993,VALID,0.004,VALID,18.609,VALID,136.0,VALID,1.459,
2017-09-08, 02:57:06,VALID,916.502,VALID,0.0,VALID,99.016,VALID,0.038,VALID,18.612,VALID,140.0,VALID,1.477,
2017-09-08, 02:58:06,VALID,916.47,VALID,0.0,VALID,98.998,VALID,0.025,VALID,18.618,VALID,144.0,VALID,1.495,
2017-09-08, 02:59:06,VALID,916.444,VALID,0.0,VALID,99.011,VALID,0.033,VALID,18.629,VALID,137.0,VALID,1.593,
2017-09-08, 03:00:06,VALID,916.429,VALID,0.0,VALID,99.011,VALID,0.024,VALID,18.64,VALID,144.0,VALID,1.69,
2017-09-08, 03:01:06,VALID,916.421,VALID,0.0,VALID,99.016,VALID,0.036,VALID,18.679,VALID,139.0,VALID,1.775,
2017-09-08, 03:02:06,VALID,916.404,VALID,0.0,VALID,99.005,VALID,0.01,VALID,18.675,VALID,138.0,VALID,1.444,
2017-09-08, 03:03:06,VALID,916.398,VALID,0.0,VALID,99.002,VALID,0.01,VALID,18.656,VALID,135.0,VALID,1.692,
2017-09-08, 03:04:06,VALID,916.394,VALID,0.0,VALID,99.017,VALID,0.022,VALID,18.675,VALID,138.0,VALID,1.521,
2017-09-08, 03:05:06,VALID,916.395,VALID,0.0,VALID,99.002,VALID,0.024,VALID,18.68,VALID,133.0,VALID,1.349,
2017-09-08, 03:06:06,VALID,916.373,VALID,0.0,VALID,99.007,VALID,0.013,VALID,18.657,VALID,131.0,VALID,1.293,
2017-09-08, 03:07:06,VALID,916.369,VALID,0.0,VALID,99.004,VALID,0.015,VALID,18.652,VALID,129.0,VALID,1.431,
2017-09-08, 03:08:06,VALID,916.371,VALID,0.0,VALID,99.017,VALID,0.026,VALID,18.685,VALID,132.0,VALID,1.348,
2017-09-08, 03:09:06,VALID,916.371,VALID,0.0,VALID,99.001,VALID,0.033,VALID,18.659,VALID,127.0,VALID,1.532,
2017-09-08, 03:10:06,VALID,916.389,VALID,0.0,VALID,99.001,VALID,0.025,VALID,18.626,VALID,131.0,VALID,1.573,
2017-09-08, 03:11:06,VALID,916.405,VALID,0.0,VALID,98.995,VALID,0.01,VALID,18.648,VALID,129.0,VALID,1.752,
2017-09-08, 03:12:06,VALID,916.41,VALID,0.0,VALID,98.999,VALID,-0.011,VALID,18.664,VALID,133.0,VALID,1.81,
2017-09-08, 03:13:06,VALID,916.424,VALID,0.0,VALID,98.995,VALID,0.001,VALID,18.653,VALID,138.0,VALID,1.716,
2017-09-08, 03:14:06,VALID,916.445,VALID,0.0,VALID,98.994,VALID,-0.011,VALID,18.659,VALID,139.0,VALID,2.047,
2017-09-08, 03:15:06,VALID,916.453,VALID,0.0,VALID,99.004,VALID,-0.016,VALID,18.669,VALID,148.0,VALID,1.527,
2017-09-08, 03:16:06,VALID,916.477,VALID,0.0,VALID,98.999,VALID,-0.011,VALID,18.693,VALID,151.0,VALID,1.732,
2017-09-08, 03:17:06,VALID,916.505,VALID,0.0,VALID,98.992,VALID,-0.009,VALID,18.697,VALID,151.0,VALID,1.848,
2017-09-08, 03:18:06,VALID,916.504,VALID,0.0,VALID,99.017,VALID,-0.004,VALID,18.697,VALID,145.0,VALID,1.936,
2017-09-08, 03:19:06,VALID,916.511,VALID,0.0,VALID,99.028,VALID,-0.02,VALID,18.687,VALID,152.0,VALID,1.65,
2017-09-08, 03:20:06,VALID,916.499,VALID,0.0,VALID,99.024,VALID,-0.011,VALID,18.717,VALID,149.0,VALID,1.839,
2017-09-08, 03:21:06,VALID,916.494,VALID,0.0,VALID,98.998,VALID,-0.011,VALID,18.708,VALID,158.0,VALID,1.638,
2017-09-08, 03:22:06,VALID,916.487,VALID,0.0,VALID,98.978,VALID,-0.004,VALID,18.692,VALID,160.0,VALID,1.32,
2017-09-08, 03:23:06,VALID,916.479,VALID,0.0,VALID,98.975,VALID,-0.029,VALID,18.677,VALID,159.0,VALID,1.225,
2017-09-08, 03:24:06,VALID,916.472,VALID,0.0,VALID,98.965,VALID,-0.005,VALID,18.66,VALID,157.0,VALID,1.241,
2017-09-08, 03:25:06,VALID,916.478,VALID,0.0,VALID,98.98,VALID,-0.01,VALID,18.656,VALID,155.0,VALID,1.5,
2017-09-08, 03:26:06,VALID,916.481,VALID,0.0,VALID,99.005,VALID,-0.022,VALID,18.678,VALID,150.0,VALID,1.506,
2017-09-08, 03:27:06,VALID,916.483,VALID,0.0,VALID,98.968,VALID,-0.007,VALID,18.67,VALID,150.0,VALID,1.479,
2017-09-08, 03:28:06,VALID,916.477,VALID,0.0,VALID,98.989,VALID,-0.021,VALID,18.677,VALID,157.0,VALID,1.674,
2017-09-08, 03:29:06,VALID,916.48,VALID,0.0,VALID,98.998,VALID,-0.008,VALID,18.712,VALID,160.0,VALID,1.379,
2017-09-08, 03:30:06,VALID,916.483,VALID,0.0,VALID,98.986,VALID,0.0,VALID,18.686,VALID,163.0,VALID,1.273,
2017-09-08, 03:31:06,VALID,916.484,VALID,0.0,VALID,98.977,VALID,-0.002,VALID,18.671,VALID,162.0,VALID,1.57,
2017-09-08, 03:32:06,VALID,916.488,VALID,0.0,VALID,98.996,VALID,0.003,VALID,18.698,VALID,162.0,VALID,1.577,
2017-09-08, 03:33:06,VALID,916.482,VALID,0.0,VALID,98.982,VALID,0.01,VALID,18.716,VALID,159.0,VALID,1.642,
2017-09-08, 03:34:06,VALID,916.493,VALID,0.0,VALID,98.984,VALID,0.005,VALID,18.71,VALID,157.0,VALID,1.623,
2017-09-08, 03:35:06,VALID,916.48,VALID,0.0,VALID,98.973,VALID,0.013,VALID,18.691,VALID,152.0,VALID,1.637,
2017-09-08, 03:36:06,VALID,916.456,VALID,0.0,VALID,98.962,VALID,0.012,VALID,18.679,VALID,150.0,VALID,1.521,
2017-09-08, 03:37:06,VALID,916.447,VALID,0.0,VALID,98.969,VALID,0.016,VALID,18.68,VALID,154.0,VALID,1.497,
2017-09-08, 03:38:06,VALID,916.427,VALID,0.0,VALID,98.957,VALID,0.011,VALID,18.675,VALID,155.0,VALID,1.288,